Location: Pian di Sc�
(43.6333°N, 11.5500°E)
Time: 10:13:13
(UTC+00:00)

Meteor 2-21 Rocket - Pass Details

Date: 07 August 2020
Orbit: 936 x 968 km, 82.6° (Epoch: 18 September)

Event Time Altitude Azimuth Distance (km) Brightness Sun altitude
Rises 02:40:17 0° 351° (N) 3,604 7.9 -14.5°
Reaches altitude 10° 02:42:46 10° 352° (N) 2,657 7.2 -14.2°
Maximum altitude 02:48:51 90° 55° (NE) 944 4.4 -13.3°
Drops below altitude 10° 02:54:55 10° 173° (S) 2,649 6.5 -12.5°
Sets 02:57:24 0° 174° (S) 3,594 7.2 -12.1°
